Weather History for Kansas City, MO

Change the Weather History Date:

Friday, January 18, 2013

  Actual Average Record
Temperature  
Mean Temperature 46 °F -  
Max Temperature 57 °F 37 °F 57 °F (2006)
Min Temperature 35 °F 21 °F 6 °F (1997)
Degree Days  
Heating Degree Days 19    
Moisture  
Dew Point 27 °F    
Average Humidity 49    
Maximum Humidity 70    
Minimum Humidity 32    
Precipitation  
Precipitation 0.00 in - - ()
Sea Level Pressure  
Sea Level Pressure 30.20 in    
Wind  
Wind Speed 13 mph (SSW)    
Max Wind Speed 25 mph    
Max Gust Speed 36 mph    
Visibility 10 miles    
Events      
Averages and records for this station are not official NWS values.
T = Trace of Precipitation, MM = Missing Value Source: NWS Daily Summary

Daily Weather History Graph

Daily Weather History Graph

Search for Another Location

Airport:

Trip Planner

Search our weather history database for the weather conditions in past years. The results will help you decide how hot, cold, wet, or windy it might be!

Date:

Astronomy

Jan. 18, 2013 Rise Set
Actual Time 7:34 AM CST 5:23 PM CST
Civil Twilight 7:05 AM CST 5:52 PM CST
Nautical Twilight 6:32 AM CST 6:25 PM CST
Astronomical Twilight 6:00 AM CST 6:57 PM CST
Moon 11:17 AM CST (1/18) 12:11 AM CST (1/18)
Length of Visible Light 10h 47m
Length of Day
9h 48m
Waxing Crescent, 47% of the Moon is Illuminated
Jan 18
Waxing Crescent
Jan 18
First Quarter
Jan 26
Full
Feb 3
Last Quarter
Feb 10
New

Hourly Weather History & Observations

Time (CST) Temp. Windchill Dew Point Humidity Pressure Visibility Wind Dir Wind Speed Gust Speed Precip Events Conditions
12:54 AM 35.1 °F 28.6 °F 26.1 °F 70% 30.41 in 10.0 mi SSW 8.1 mph - N/A   Clear
1:54 AM 35.1 °F 28.6 °F 26.1 °F 70% 30.41 in 10.0 mi SSW 8.1 mph - N/A   Clear
2:54 AM 35.1 °F 31.0 °F 26.1 °F 70% 30.40 in 10.0 mi SSW 4.6 mph - N/A   Clear
3:54 AM 37.0 °F 29.3 °F 26.1 °F 65% 30.38 in 10.0 mi SSW 11.5 mph - N/A   Clear
4:54 AM 37.0 °F 28.9 °F 27.0 °F 67% 30.36 in 10.0 mi SSW 12.7 mph - N/A   Clear
5:54 AM 37.0 °F 28.9 °F 26.1 °F 65% 30.35 in 10.0 mi SSW 12.7 mph - N/A   Clear
6:54 AM 37.0 °F 28.5 °F 26.1 °F 65% 30.34 in 10.0 mi South 13.8 mph - N/A   Clear
7:54 AM 37.9 °F 29.2 °F 26.1 °F 62% 30.32 in 10.0 mi SSW 15.0 mph - N/A   Clear
8:54 AM 41.0 °F 32.5 °F 26.1 °F 55% 30.31 in 10.0 mi SSW 17.3 mph 23.0 mph N/A   Clear
9:54 AM 46.0 °F 38.3 °F 27.0 °F 47% 30.28 in 10.0 mi SSW 20.7 mph 28.8 mph N/A   Clear
10:54 AM 50.0 °F - 28.0 °F 43% 30.23 in 10.0 mi SSW 15.0 mph 29.9 mph N/A   Clear
11:54 AM 55.0 °F - 28.0 °F 35% 30.19 in 10.0 mi SW 24.2 mph 33.4 mph N/A   Clear
12:54 PM 57.0 °F - 27.0 °F 32% 30.14 in 10.0 mi SW 25.3 mph 35.7 mph N/A   Clear
1:54 PM 55.9 °F - 28.0 °F 34% 30.11 in 10.0 mi SW 19.6 mph 32.2 mph N/A   Clear
2:54 PM 57.0 °F - 28.0 °F 33% 30.08 in 10.0 mi SW 25.3 mph 35.7 mph N/A   Clear
3:54 PM 57.0 °F - 28.0 °F 33% 30.04 in 10.0 mi SSW 24.2 mph 34.5 mph N/A   Clear
4:54 PM 57.0 °F - 28.0 °F 33% 30.06 in 10.0 mi SW 20.7 mph 33.4 mph N/A   Clear
5:54 PM 55.0 °F - 28.0 °F 35% 30.06 in 10.0 mi SSW 19.6 mph 29.9 mph N/A   Clear
6:54 PM 52.0 °F - 28.0 °F 40% 30.07 in 10.0 mi SSW 10.4 mph - N/A   Clear
7:54 PM 50.0 °F - 28.9 °F 44% 30.08 in 10.0 mi SW 9.2 mph 19.6 mph N/A   Clear
8:54 PM 50.0 °F - 28.9 °F 44% 30.07 in 10.0 mi SW 10.4 mph 21.9 mph N/A   Clear
9:54 PM 50.0 °F - 28.9 °F 44% 30.05 in 10.0 mi SSW 17.3 mph 23.0 mph N/A   Clear
10:54 PM 48.0 °F - 28.9 °F 48% 30.04 in 10.0 mi SSW 11.5 mph 21.9 mph N/A   Clear
11:54 PM 48.9 °F - 28.9 °F 46% 30.02 in 10.0 mi SW 16.1 mph 21.9 mph N/A   Clear